When you browse on this site, cookies collect data to enhance your experience and personalize the content and advertising you see.
Visit our Privacy Policy to learn more. By continuing to use the site, you agree to this use of cookies and data.
  • In Denmark
  • List of Countries
  • For 7 days
  • Water Temperature
  • Satellite Maps
  • Weather Map
  • Weather Widgets
  • user-avatar
    Login

    Hourly Weather Shmelevka

    Today, 20 July, Saturday

    Time Temperature Precipitation Wind Pressure Humidity
    00:00 +12°C° 0 mm 4 mps 737 mmHg 93%
    01:00 +12°C° 0 mm 4 mps 738 mmHg 94%
    02:00 +12°C° 0 mm 3 mps 738 mmHg 94%
    03:00 +12°C° 0 mm 4 mps 738 mmHg 91%
    04:00 +13°C° 0 mm 4 mps 738 mmHg 87%
    05:00 +13°C° 0 mm 4 mps 739 mmHg 83%
    06:00 +14°C° 0 mm 5 mps 739 mmHg 81%
    07:00 +16°C° 0 mm 5 mps 739 mmHg 78%
    08:00 +17°C° 0 mm 6 mps 739 mmHg 77%
    09:00 +20°C° 0.1 mm 6 mps 739 mmHg 72%
    10:00 +21°C° 0.1 mm 6 mps 739 mmHg 68%
    11:00 +22°C° 0.1 mm 6 mps 739 mmHg 64%
    12:00 +22°C° 0.2 mm 6 mps 740 mmHg 64%
    13:00 +22°C° 0.2 mm 6 mps 740 mmHg 64%
    14:00 +22°C° 0.2 mm 6 mps 740 mmHg 65%
    15:00 +22°C° 0.1 mm 5 mps 740 mmHg 67%
    16:00 +22°C° 0.1 mm 4 mps 740 mmHg 69%
    17:00 +22°C° 0.1 mm 4 mps 740 mmHg 71%
    18:00 +20°C° 0 mm 3 mps 740 mmHg 74%
    19:00 +18°C° 0 mm 3 mps 740 mmHg 77%
    20:00 +17°C° 0 mm 3 mps 740 mmHg 80%
    21:00 +16°C° 0 mm 3 mps 740 mmHg 82%
    22:00 +14°C° 0 mm 3 mps 741 mmHg 83%
    23:00 +13°C° 0 mm 3 mps 741 mmHg 85%

    Tomorrow, 21 July, Sunday

    Time Temperature Precipitation Wind Pressure Humidity
    00:00 +13°C° 0 mm 3 mps 741 mmHg 87%
    01:00 +12°C° 0 mm 3 mps 741 mmHg 88%
    02:00 +12°C° 0 mm 3 mps 741 mmHg 90%
    03:00 +12°C° 0 mm 3 mps 741 mmHg 90%
    04:00 +12°C° 0 mm 3 mps 741 mmHg 90%
    05:00 +13°C° 0 mm 3 mps 741 mmHg 90%
    06:00 +14°C° 0 mm 3 mps 741 mmHg 85%
    07:00 +17°C° 0 mm 3 mps 741 mmHg 80%
    08:00 +19°C° 0 mm 3 mps 741 mmHg 75%
    09:00 +20°C° 0 mm 4 mps 741 mmHg 70%
    10:00 +22°C° 0 mm 4 mps 741 mmHg 65%
    11:00 +23°C° 0 mm 4 mps 741 mmHg 59%
    12:00 +23°C° 0 mm 4 mps 741 mmHg 59%
    13:00 +25°C° 0 mm 4 mps 741 mmHg 58%
    14:00 +25°C° 0 mm 4 mps 741 mmHg 57%
    15:00 +25°C° 0.1 mm 3 mps 741 mmHg 61%
    16:00 +25°C° 0.1 mm 3 mps 741 mmHg 65%
    17:00 +24°C° 0.1 mm 2 mps 741 mmHg 70%
    18:00 +21°C° 0.1 mm 2 mps 741 mmHg 75%
    19:00 +19°C° 0.1 mm 2 mps 741 mmHg 81%
    20:00 +17°C° 0.1 mm 2 mps 741 mmHg 87%
    21:00 +17°C° 0 mm 2 mps 741 mmHg 88%
    22:00 +16°C° 0 mm 2 mps 741 mmHg 90%
    23:00 +16°C° 0 mm 2 mps 741 mmHg 92%

    Day after tomorrow, 22 July, Monday

    Time Temperature Precipitation Wind Pressure Humidity
    00:00 +15°C° 0 mm 2 mps 741 mmHg 92%
    01:00 +15°C° 0 mm 2 mps 741 mmHg 93%
    02:00 +15°C° 0 mm 2 mps 741 mmHg 94%
    03:00 +15°C° 0 mm 2 mps 741 mmHg 94%
    04:00 +15°C° 0 mm 2 mps 741 mmHg 94%
    05:00 +15°C° 0 mm 1 mps 741 mmHg 94%
    06:00 +17°C° 0 mm 2 mps 741 mmHg 89%
    07:00 +18°C° 0 mm 2 mps 741 mmHg 85%
    08:00 +20°C° 0 mm 2 mps 741 mmHg 80%
    09:00 +21°C° 0 mm 2 mps 741 mmHg 74%
    10:00 +23°C° 0 mm 2 mps 741 mmHg 68%
    11:00 +24°C° 0 mm 1 mps 741 mmHg 63%
    12:00 +25°C° 0 mm 1 mps 740 mmHg 60%
    13:00 +26°C° 0 mm 1 mps 740 mmHg 57%
    14:00 +26°C° 0 mm 1 mps 740 mmHg 54%
    15:00 +26°C° 0 mm 1 mps 740 mmHg 56%
    16:00 +26°C° 0 mm 1 mps 740 mmHg 57%
    17:00 +26°C° 0 mm 1 mps 740 mmHg 59%
    18:00 +24°C° 0 mm 1 mps 740 mmHg 64%
    19:00 +22°C° 0 mm 1 mps 739 mmHg 70%
    20:00 +18°C° 0 mm 0 mps 739 mmHg 76%
    21:00 +19°C° 0 mm 1 mps 739 mmHg 76%
    22:00 +19°C° 0 mm 1 mps 739 mmHg 77%
    23:00 +18°C° 0 mm 1 mps 739 mmHg 77%

    23 July, Tuesday

    Time Temperature Precipitation Wind Pressure Humidity
    00:00 +18°C° 0 mm 1 mps 739 mmHg 78%
    01:00 +18°C° 0 mm 1 mps 739 mmHg 78%
    02:00 +18°C° 0 mm 1 mps 739 mmHg 78%
    03:00 +18°C° 0 mm 1 mps 739 mmHg 79%
    04:00 +19°C° 0 mm 1 mps 739 mmHg 80%
    05:00 +19°C° 0 mm 1 mps 739 mmHg 81%
    06:00 +19°C° 0 mm 2 mps 738 mmHg 80%
    07:00 +20°C° 0 mm 2 mps 738 mmHg 78%
    08:00 +21°C° 0 mm 3 mps 738 mmHg 77%
    09:00 +22°C° 0.2 mm 3 mps 738 mmHg 74%
    10:00 +24°C° 0.2 mm 3 mps 738 mmHg 71%
    11:00 +25°C° 0.2 mm 4 mps 738 mmHg 68%
    12:00 +25°C° 0.5 mm 4 mps 738 mmHg 68%
    13:00 +25°C° 0.5 mm 4 mps 738 mmHg 68%
    14:00 +25°C° 0.5 mm 4 mps 738 mmHg 68%
    15:00 +24°C° 1.3 mm 3 mps 738 mmHg 75%
    16:00 +22°C° 1.3 mm 3 mps 738 mmHg 81%
    17:00 +21°C° 1.3 mm 2 mps 738 mmHg 87%
    18:00 +20°C° 0.2 mm 2 mps 738 mmHg 90%
    19:00 +19°C° 0.2 mm 2 mps 738 mmHg 92%
    20:00 +18°C° 0.2 mm 2 mps 738 mmHg 95%
    21:00 +18°C° 0.1 mm 2 mps 738 mmHg 95%
    22:00 +18°C° 0.1 mm 3 mps 738 mmHg 95%
    23:00 +18°C° 0.1 mm 3 mps 738 mmHg 95%

    24 July, Wednesday

    Time Temperature Precipitation Wind Pressure Humidity
    00:00 +18°C° 0.3 mm 3 mps 738 mmHg 95%
    01:00 +18°C° 0.3 mm 3 mps 738 mmHg 96%
    02:00 +18°C° 0.3 mm 3 mps 738 mmHg 96%
    03:00 +18°C° 0.1 mm 3 mps 738 mmHg 96%
    04:00 +18°C° 0.1 mm 3 mps 738 mmHg 96%
    05:00 +18°C° 0.1 mm 3 mps 738 mmHg 96%
    06:00 +19°C° 0 mm 3 mps 739 mmHg 94%
    07:00 +20°C° 0 mm 3 mps 739 mmHg 91%
    08:00 +21°C° 0 mm 3 mps 739 mmHg 89%
    09:00 +21°C° 0.1 mm 3 mps 739 mmHg 85%
    10:00 +22°C° 0.1 mm 3 mps 739 mmHg 82%
    11:00 +24°C° 0.1 mm 2 mps 739 mmHg 79%
    12:00 +24°C° 0.9 mm 3 mps 739 mmHg 78%
    13:00 +25°C° 0.9 mm 3 mps 739 mmHg 76%
    14:00 +26°C° 0.9 mm 3 mps 739 mmHg 75%
    15:00 +25°C° 0.6 mm 3 mps 739 mmHg 76%
    16:00 +25°C° 0.6 mm 2 mps 739 mmHg 77%
    17:00 +25°C° 0.6 mm 2 mps 739 mmHg 78%
    18:00 +24°C° 0.3 mm 2 mps 739 mmHg 82%
    19:00 +21°C° 0.3 mm 2 mps 739 mmHg 85%
    20:00 +20°C° 0.3 mm 2 mps 739 mmHg 88%
    21:00 +20°C° 0 mm 1 mps 740 mmHg 89%
    22:00 +20°C° 0 mm 1 mps 740 mmHg 89%
    23:00 +19°C° 0 mm 1 mps 740 mmHg 90%

    25 July, Thursday

    Time Temperature Precipitation Wind Pressure Humidity
    00:00 +19°C° 0 mm 1 mps 740 mmHg 90%
    01:00 +19°C° 0 mm 1 mps 740 mmHg 91%
    02:00 +19°C° 0 mm 1 mps 740 mmHg 91%
    03:00 +19°C° 0 mm 1 mps 740 mmHg 91%
    04:00 +19°C° 0 mm 1 mps 740 mmHg 91%
    05:00 +20°C° 0 mm 1 mps 740 mmHg 91%
    06:00 +21°C° 0 mm 1 mps 740 mmHg 87%
    07:00 +23°C° 0 mm 1 mps 741 mmHg 82%
    08:00 +24°C° 0 mm 1 mps 741 mmHg 77%
    09:00 +25°C° 0.8 mm 1 mps 741 mmHg 73%
    10:00 +26°C° 0.8 mm 1 mps 741 mmHg 68%
    11:00 +27°C° 0.8 mm 1 mps 741 mmHg 64%
    12:00 +28°C° 0.5 mm 1 mps 741 mmHg 62%
    13:00 +28°C° 0.5 mm 2 mps 741 mmHg 60%
    14:00 +28°C° 0.5 mm 2 mps 740 mmHg 59%
    15:00 +28°C° 0.1 mm 2 mps 740 mmHg 61%
    16:00 +28°C° 0.1 mm 1 mps 740 mmHg 64%
    17:00 +28°C° 0.1 mm 1 mps 740 mmHg 67%
    18:00 +26°C° 0.6 mm 1 mps 740 mmHg 73%
    19:00 +24°C° 0.6 mm 2 mps 741 mmHg 78%
    20:00 +21°C° 0.6 mm 2 mps 741 mmHg 84%
    21:00 +22°C° 0.1 mm 1 mps 740 mmHg 85%
    22:00 +21°C° 0.1 mm 1 mps 740 mmHg 87%
    23:00 +20°C° 0.1 mm 1 mps 740 mmHg 89%
    Show more